Regional Weather Roundup
Issued by NWS Mt. Holly, NJ

Home | Current Version | Previous Version | Text Only | Print | Product List | Glossary On
Versions: 1 2 3 4 5 6 7 8 9 10 11 12 13 14 15 16 17 18 19 20 21 22 23 24 25 26 27 28 29 30 31 32 33 34 35 36 37 38 39 40 41 42 43 44 45 46 47 48 49 50
000
ASUS41 KPHI 281811
RWRPHI

REGIONAL WEATHER ROUNDUP
NATIONAL WEATHER SERVICE MOUNT HOLLY NJ
100 PM EST SAT FEB 28 2015

NOTE:  "FAIR" INDICATES FEW OR NO CLOUDS BELOW 12,000 FEET WITH NO
SIGNIFICANT WEATHER AND/OR OBSTRUCTIONS TO VISIBILITY.

 * = STATION DOES NOT REPORT PRECIPITATION (E.G. RAIN, SNOW, ETC.)
        OR FOG.

NJZ015>026-281900-
SOUTHERN NEW JERSEY

CITY           SKY/WX    TMP DP  RH WIND       PRES   REMARKS
POMONA         MOSUNNY   28   1  31 VRB7      30.79F WCI  21
6HR MIN TEMP:  13; 6HR MAX TEMP:  28;

RIO GRANDE*    MOSUNNY   25   3  39 NW5       30.83F WCI  19
MILLVILLE      MOSUNNY   27   2  34 NW6       30.81F WCI  20
WRIGHTSTOWN    SUNNY     25   2  37 W8        30.78F WCI  16
MOUNT HOLLY    SUNNY     25  -1  32 W9        30.81F WCI  15
TRENTON        SUNNY     24  -1  33 W7        30.80F WCI  16
6HR MIN TEMP:  11; 6HR MAX TEMP:  24;


$$
NJZ001>014-281900-
NORTHERN NEW JERSEY

CITY           SKY/WX    TMP DP  RH WIND       PRES   REMARKS
SUSSEX         SUNNY     23   2  40 S3        30.74F
ANDOVER*         N/A     25   0  33 CALM      30.74F
MORRISTOWN     MOSUNNY   23   1  39 CALM      30.79F
NEWARK         MOSUNNY   26   3  37 VRB3      30.79F
TETERBORO      SUNNY     24  -2  32 CALM      30.78F
CALDWELL       SUNNY     23   0  36 S5        30.78F WCI  17
SOMERVILLE     SUNNY     27   0  31 CALM      30.77F
ALLAIRE*       SUNNY     27   1  33 NW5       30.78F WCI  21
TOMS RIVER*    SUNNY     28   1  31 W8        30.79F WCI  20

$$
PAZ043-044-047-054-055-060>062-066>071-281900-
EASTERN PENNSYLVANIA

CITY           SKY/WX    TMP DP  RH WIND       PRES   REMARKS
PHILADELPHIA   MOSUNNY   27  -2  28 CALM      30.82F
6HR MIN TEMP:  16; 6HR MAX TEMP:  27;

NORTH PHILA    SUNNY     28  -4  25 VRB5      30.82F WCI  23
BLUE BELL      SUNNY     27   1  33 SW6       30.79F WCI  20
DOYLESTOWN     SUNNY     22   1  40 VRB6      30.78F WCI  14
QUAKERTOWN*    FAIR      23  -2  33 N3        30.79F
POTTSTOWN      SUNNY     24  -3  30 SW7       30.81F WCI  16
LANCASTER      FAIR      21  -4  33 NW7       30.80F WCI  12
COATESVILLE    SUNNY     25   1  36 NW6       30.77F WCI  18
READING        SUNNY     23  -4  30 SW6       30.80F WCI  16
6HR MIN TEMP:   8; 6HR MAX TEMP:  24; 6HR PCP: TRACE;

ALLENTOWN      SUNNY     22  -4  32 CALM      30.79F
6HR MIN TEMP:   8; 6HR MAX TEMP:  23; 6HR PCP: TRACE;

MOUNT POCONO   SUNNY     20  -6  31 VRB6      30.62F WCI  12
HAZLETON       SUNNY     19  -4  35 NW6       30.70F WCI  11
WILKES BARRE   SUNNY     21   0  39 CALM      30.73F

$$
DEZALL-MDZ008-012-015-019-020-281900-
DELAWARE AND EASTERN MARYLAND

CITY           SKY/WX    TMP DP  RH WIND       PRES   REMARKS
WILMINGTON     SUNNY     27   0  31 W7        30.82F WCI  19
6HR MIN TEMP:  14; 6HR MAX TEMP:  28;

DOVER          MOSUNNY   26   6  43 N7        30.82F WCI  18
GEORGETOWN     MOSUNNY  N/A N/A N/A N5        30.82F
6HR MIN TEMP:  22; 6HR MAX TEMP:  41;

EASTON         MOSUNNY   28   9  43 CALM      30.87F
PATUXENT       CLOUDY    25   6  44 NE7       30.84F WCI  17
OCEAN CITY     SUNNY     27   8  44 NE8       30.82F WCI  19
WALLOPS ISLAND MOSUNNY   26  15  63 E9        30.82F WCI  17
CAMBRIDGE      CLOUDY    28   9  43 N5        30.83F WCI  23
SALISBURY      MOSUNNY   30   7  37 W6        30.81F WCI  24

$$
PAZ001-021-NYZ056-072-MDZ011-DCZ001-281900-
OTHER NEARBY LOCATIONS

CITY           SKY/WX    TMP DP  RH WIND       PRES   REMARKS
HARRISBURG     MOSUNNY   24   0  35 NW5       30.80F WCI  18
STATE COLLEGE  SUNNY     18  -4  38 CALM      30.72F
WILLIAMSPORT   SUNNY    N/A N/A N/A CALM      30.79F
BINGHAMTON     SUNNY     17  -1  45 CALM      30.66F
NEW YORK CITY  SUNNY     25   1  35 CALM      30.80F
BALTIMORE      PTSUNNY   27   1  32 VRB3      30.82F
WASHINGTON DC  PTSUNNY   30   5  34 E3        30.83F

$$



USA.gov is the U.S. government's official web portal to all federal, state and local government web resources and services.